Regional Weather Roundup
Issued by NWS Little Rock, AR

Home | Current Version | Previous Version | Text Only | Print | Product List | Glossary On
Versions: 1 2 3 4 5 6 7 8 9 10 11 12 13 14 15 16 17 18 19 20 21 22 23 24 25 26 27 28 29 30 31
000
ASUS44 KLZK 241605
RWRLZK

WEATHER ROUNDUP FOR ARKANSAS
NATIONAL WEATHER SERVICE LITTLE ROCK AR
1100 AM CDT FRI MAR 24 2017

NOTE: "FAIR" INDICATES FEW OR NO CLOUDS BELOW 12,000 FEET WITH NO
SIGNIFICANT WEATHER AND/OR OBSTRUCTIONS TO VISIBILITY.

ARZ001-003-010-029-241700-
NORTHWEST ARKANSAS

CITY           SKY/WX    TMP DP  RH WIND       PRES   REMARKS
FAYETTEVILLE   CLOUDY    65  55  70 S22G31    29.95S
FORT SMITH     CLOUDY    72  52  49 S15G22    29.96S
HARRISON       MOSUNNY   69  53  56 S18G29    30.01R
BENTONVILLE    CLOUDY    66  52  59 S16G24    29.96S
ROGERS         CLOUDY    65  53  65 S21G29    29.96R
SILOAM SPGS    CLOUDY    64  52  63 S20G28    29.94R
HIGHFILL       CLOUDY    66  53  63 S20G31    29.94R
SPRINGDALE     CLOUDY    63  55  77 S22G30    29.98R
$$

ARZ004-005-016-241700-
NORTH CENTRAL ARKANSAS

CITY           SKY/WX    TMP DP  RH WIND       PRES   REMARKS
BATESVILLE     CLOUDY    70  57  64 S15G21    30.11S
FLIPPIN        CLOUDY    70  52  52 S15G26    30.00S
MTN HOME       CLOUDY    69  54  58 SW17G31   30.02R
$$

ARZ040-041-241700-
WEST CENTRAL ARKANSAS

CITY           SKY/WX    TMP DP  RH WIND       PRES   REMARKS
MENA           PTSUNNY   72  61  68 S7G33     30.00R
MOUNT IDA      CLOUDY    69  59  70 SE12G22   30.01R
$$

ARZ009-017-025-026-028-241700-
NORTHEAST ARKANSAS

CITY           SKY/WX    TMP DP  RH WIND       PRES   REMARKS
CORNING        FAIR      70  63  78 S20       30.12F
JONESBORO      CLOUDY    70  60  70 S17G31    30.14S
NEWPORT        CLOUDY    72  61  68 S22G28    30.12S
WALNUT RIDGE   MOSUNNY   70  59  68 S21G29    30.12S
BLYTHEVILLE    CLOUDY    70  62  76 S15G21    30.18R
$$

ARZ022-023-033-042-044-241700-
CENTRAL ARKANSAS

CITY           SKY/WX    TMP DP  RH WIND       PRES   REMARKS
LITTLE ROCK    CLOUDY    70  62  76 S18G24    30.11R
N LITTLE ROCK    N/A     70  61  73 S9G20     30.10S
JACKSONVILLE   CLOUDY    71  61  71 SE9G21    30.10S
CONWAY           N/A     70  61  73 S10G17    30.07S
SEARCY         CLOUDY    71  62  73 S18G24    30.13S
HOT SPRINGS    CLOUDY    69  61  75 SE9G17    30.09R
RUSSELLVILLE   CLOUDY    69  57  65 VRB7      30.03F
CLINTON        CLOUDY    70  59  68 S9G18     30.07S
$$

ARZ036-241700-
EAST ARKANSAS

CITY           SKY/WX    TMP DP  RH WIND       PRES   REMARKS
WEST MEMPHIS   CLOUDY    70  61  73 S18G28    30.17R
$$

ARZ050-053-066-070-073-241700-
SOUTHWEST ARKANSAS

CITY           SKY/WX    TMP DP  RH WIND       PRES   REMARKS
ARKADELPHIA    CLOUDY    70  62  76 S10       30.09S
CAMDEN         CLOUDY    73  57  56 S13G23    30.10S
TEXARKANA      CLOUDY    69  62  78 S13G21    30.04S
EL DORADO      CLOUDY    71  62  73 SE7       30.11R
DE QUEEN       CLOUDY    70  62  76 S10G26    29.98S
$$

ARZ056-057-069-241700-
SOUTHEAST ARKANSAS

CITY           SKY/WX    TMP DP  RH WIND       PRES   REMARKS
PINE BLUFF     CLOUDY    71  61  70 S16       30.13S
STUTTGART      CLOUDY    72  55  56 S22       30.15S
MONTICELLO     CLOUDY    71  62  73 S9G20     30.14S

$$






USA.gov is the U.S. government's official web portal to all federal, state and local government web resources and services.